Location: Pinon Hills
(34.4429°N, 117.6403°W)
Time: 19:21:59
(UTC-07:00)

Amateur Radio Satellites - All Passes

Search period start: 26 May 2017 18:51
Search period end: 27 May 2017 18:51
Location: Pinon Hills, 34.4429°N, 117.6403°W

Satellite Date Start Highest point End Downlink Frequencies (MHz)
Time Altitude Azimuth
XW-2D 26 May 19:05:49 19:08:42 20° 265° (W) 19:11:37 145.860 - 145.880
CUBEBUG 2 26 May 19:10:43 19:13:40 19° 69° (ENE) 19:16:39 437.445
XW-2B 26 May 19:14:10 19:16:42 17° 266° (W) 19:19:15 145.730 - 145.750
STARS 26 May 19:18:20 19:21:01 16° 293° (WNW) 19:23:41 437.465
SEEDS 26 May 19:19:45 19:23:36 34° 73° (ENE) 19:27:28 437.485
UWE-3 26 May 19:21:25 19:23:47 15° 67° (ENE) 19:26:12 435.000/436.395/437.385
NUDT-PHONESAT 26 May 19:25:39 19:27:52 15° 266° (W) 19:30:08 437.300
XW-2F 26 May 19:27:46 19:29:19 12° 267° (W) 19:30:51 145.980 - 146.000
XW-2C 26 May 19:29:21 19:30:29 11° 268° (W) 19:31:38 145.795 - 145.815
KAITUO 1B 26 May 19:35:14 19:36:39 12° 267° (W) 19:38:06 145.475/437.950
CUTE-I 26 May 19:40:30 19:44:01 18° 266° (W) 19:47:32 437.470
Tancredo 1 26 May 19:51:47 19:54:51 85° 313° (NW) 19:57:56 437.200
XW-2A 26 May 19:52:12 19:55:28 51° 261° (W) 19:58:45 145.665 - 145.685
Oscar 11 26 May 19:53:30 19:55:51 15° 67° (ENE) 19:58:13 .
STRAND 1 26 May 20:04:52 20:09:59 63° 101° (ESE) 20:15:04 437.568
CUTE 1.7 + AOD 2 26 May 20:06:16 20:10:13 37° 262° (W) 20:14:14 437.475
HO-68 26 May 20:17:04 20:23:49 44° 260° (W) 20:30:37 435.675
PCSat 26 May 20:18:14 20:22:45 26° 305° (NW) 20:27:17 145.827
AAUSAT CUBESAT 2 26 May 20:18:36 20:22:47 83° 77° (ENE) 20:26:58 437.432
AO-73 26 May 20:18:39 20:22:26 34° 72° (ENE) 20:26:20 145.935
ISS 26 May 20:24:34 20:27:49 63° 319° (NW) 20:31:05 437.550
ZACube-1 26 May 20:32:23 20:36:30 58° 75° (ENE) 20:40:43 437.345
DELFI C3 26 May 20:39:14 20:40:19 11° 67° (ENE) 20:41:24 145.870
CUBEBUG 2 26 May 20:46:33 20:50:05 27° 264° (W) 20:53:40 437.445
UWE-3 26 May 20:56:03 20:59:53 36° 262° (W) 21:03:49 435.000/436.395/437.385
SEEDS 26 May 20:56:46 20:59:21 16° 266° (W) 21:01:56 437.485
M-CUBED/EXP-1 PRIME 26 May 21:24:30 21:27:45 68° 106° (ESE) 21:30:59 437.505
Oscar 11 26 May 21:27:30 21:31:35 41° 261° (W) 21:35:43 .
Tancredo 1 26 May 21:30:25 21:31:01 10° 333° (NNW) 21:31:38 437.200
FO-29 26 May 21:34:03 21:38:35 18° 94° (E) 21:43:21 435.910
SO-50 26 May 21:43:25 21:47:35 35° 114° (ESE) 21:51:45 436.795
STRAND 1 26 May 21:46:04 21:48:34 14° 296° (WNW) 21:51:05 437.568
AO-73 26 May 21:56:17 21:58:46 15° 267° (W) 22:01:18 145.935
EO-88 26 May 22:10:26 22:14:03 66° 259° (W) 22:17:43 145.990 - 145.960
DELFI C3 26 May 22:10:47 22:14:38 46° 261° (W) 22:18:29 145.870
TIGRISAT 26 May 22:22:13 22:26:28 35° 98° (E) 22:30:45 435.000
LO-87 26 May 22:52:58 22:56:19 42° 75° (ENE) 22:59:42 145.935 - 145.965
UNISAT 6 26 May 22:53:43 22:58:22 89° 113° (ESE) 23:03:04 437.425
PRISM 26 May 22:56:31 23:00:32 62° 285° (WNW) 23:04:31 437.425
FO-29 26 May 23:17:15 23:23:47 69° 286° (WNW) 23:31:08 435.910
ESTCUBE 1 26 May 23:20:43 23:25:08 56° 75° (ENE) 23:29:36 437.505/2401.250
SO-50 26 May 23:24:33 23:28:07 22° 309° (NW) 23:31:39 436.795
YUBILEINY 26 May 23:45:24 23:50:03 16° 79° (E) 23:54:42 435.215
TIGRISAT 26 May 23:59:34 00:02:52 19° 291° (WNW) 00:06:10 435.000
NANOSAT C BR1 27 May 00:04:15 00:07:54 27° 97° (E) 00:11:32 145.865
50 SAT 27 May 00:05:28 00:07:43 17° 70° (ENE) 00:09:58 437.505
SPROUT 27 May 00:07:02 00:11:02 43° 74° (ENE) 00:15:03 437.525
POLYITAN 1 27 May 00:08:54 00:12:50 35° 98° (E) 00:16:45 437.675
DUCHIFAT 1 27 May 00:14:38 00:18:27 32° 98° (E) 00:22:15 145.980
VELOX 1 27 May 00:15:09 00:19:28 56° 74° (ENE) 00:23:47 145.980
AIST 2D 27 May 00:17:21 00:20:53 69° 283° (WNW) 00:24:24 435.315
QB50P2 27 May 00:17:25 00:21:34 49° 100° (E) 00:25:42 145.880/145.840
BUGSAT 1 27 May 00:32:36 00:34:53 14° 94° (E) 00:37:09 437.445
UKube-1 27 May 00:41:55 00:45:24 25° 70° (ENE) 00:48:55 .
DX 1 27 May 00:49:38 00:53:48 46° 73° (ENE) 00:57:57 434.975-435.025
EO-79 27 May 00:54:23 00:58:36 62° 284° (WNW) 01:02:49 145.935-145.965
RS-15 27 May 00:58:20 01:08:44 37° 105° (ESE) 01:19:24 29.354- 29.394
ESTCUBE 1 27 May 01:01:05 01:02:13 11° 268° (W) 01:03:22 437.505/2401.250
Gurwin Techsat 1B 27 May 01:22:10 01:23:22 11° 91° (E) 01:24:33 435.225
YUBILEINY 27 May 01:36:52 01:45:35 85° 275° (W) 01:54:24 435.215
50 SAT 27 May 01:37:44 01:40:24 21° 263° (W) 01:43:04 437.505
Oscar 19 27 May 01:38:25 01:42:53 29° 97° (E) 01:47:19 437.125/150
NANOSAT C BR1 27 May 01:40:16 01:43:24 20° 291° (WNW) 01:46:33 145.865
SPROUT 27 May 01:45:21 01:47:07 12° 267° (W) 01:48:52 437.525
POLYITAN 1 27 May 01:45:35 01:48:17 17° 292° (WNW) 01:51:00 437.675
DUCHIFAT 1 27 May 01:51:02 01:53:50 17° 291° (WNW) 01:56:38 145.980
QB50P2 27 May 01:55:14 01:56:53 12° 294° (WNW) 01:58:32 145.880/145.840
VELOX 1 27 May 01:55:31 01:56:11 10° 268° (W) 01:56:51 145.980
JUGNU 27 May 01:57:18 01:58:34 11° 164° (SSE) 01:59:51 437.505
BEESAT 27 May 02:01:06 02:04:01 16° 66° (ENE) 02:06:57 436.000
BUGSAT 1 27 May 02:06:30 02:10:19 36° 287° (WNW) 02:14:09 437.445
UKube-1 27 May 02:17:53 02:21:19 23° 264° (W) 02:24:46 .
Tancredo 1 27 May 02:20:02 02:22:19 19° 33° (NNE) 02:24:37 437.200
DX 1 27 May 02:28:21 02:30:10 12° 267° (W) 02:31:58 434.975-435.025
ISS 27 May 02:55:32 02:58:23 27° 36° (NE) 03:01:15 437.550
Gurwin Techsat 1B 27 May 02:58:27 03:03:46 74° 285° (WNW) 03:09:03 435.225
ITUPSAT 1 27 May 03:03:22 03:08:07 76° 76° (ENE) 03:12:54 437.325
RS-15 27 May 03:08:39 03:20:32 61° 304° (NW) 03:32:49 29.354- 29.394
AO-7 27 May 03:09:56 03:16:07 22° 95° (E) 03:22:14 .
MOZHAYETS 4 27 May 03:14:36 03:19:03 52° 74° (ENE) 03:23:33
Oscar 19 27 May 03:17:46 03:22:04 27° 291° (WNW) 03:26:20 437.125/150
AO-85 27 May 03:22:51 03:25:24 16° 111° (ESE) 03:27:52 145.980
PCSat 27 May 03:26:43 03:29:59 16° 50° (NE) 03:33:14 145.827
BEESAT 27 May 03:36:51 03:41:23 44° 260° (W) 03:45:57 436.000
YUBILEINY 27 May 03:39:23 03:43:38 14° 295° (WNW) 03:47:57 435.215
JUGNU 27 May 03:42:58 03:46:50 18° 173° (S) 03:50:43 437.505
Tancredo 1 27 May 03:55:22 03:58:07 31° 228° (SW) 04:00:51 437.200
CUBESAT XI-V 27 May 04:02:27 04:06:30 29° 71° (ENE) 04:10:32 437.345
O/OREOS (USA 219) 27 May 04:03:45 04:08:20 76° 290° (WNW) 04:12:57 437.305
KKS-1 27 May 04:04:52 04:08:30 25° 70° (ENE) 04:12:07 437.445
BEESAT 3 27 May 04:11:01 04:13:17 15° 109° (ESE) 04:15:34 437.485
ITAMSAT 1 27 May 04:19:37 04:24:52 89° 104° (ESE) 04:30:05 435.822/435.867
ISS 27 May 04:32:09 04:34:47 22° 230° (SW) 04:37:24 437.550
STARS 27 May 04:34:30 04:37:51 22° 69° (ENE) 04:41:13 437.465
MOZHAYETS 4 27 May 04:54:42 04:56:28 12° 268° (W) 04:58:15
AO-7 27 May 05:01:03 05:09:20 68° 291° (WNW) 05:17:37 .
AO-85 27 May 05:01:35 05:05:30 36° 303° (WNW) 05:09:14 145.980
PCSat 27 May 05:08:29 05:13:53 69° 247° (WSW) 05:19:14 145.827
BEESAT 2 27 May 05:27:58 05:31:41 41° 114° (ESE) 05:35:28 435.950
RS-15 27 May 05:28:06 05:36:22 20° 332° (NNW) 05:44:43 29.354- 29.394
JUGNU 27 May 05:31:07 05:35:10 19° 184° (S) 05:39:14 437.505
CUBESAT XI-V 27 May 05:40:03 05:43:47 23° 265° (W) 05:47:32 437.345
KKS-1 27 May 05:41:23 05:44:56 24° 264° (W) 05:48:30 437.445
BEESAT 3 27 May 05:46:53 05:50:31 35° 304° (WNW) 05:54:13 437.485
LilacSat-2 27 May 06:08:04 06:10:49 19° 95° (E) 06:13:34 437.200
STARS 27 May 06:10:22 06:14:01 26° 263° (W) 06:17:41 437.465
SRMSAT 27 May 06:12:00 06:15:49 17° 173° (S) 06:19:39 437.500
DOVE 4 27 May 06:14:46 06:18:48 44° 99° (E) 06:22:57 437.250
SO-50 27 May 06:19:06 06:21:26 14° 47° (NE) 06:23:47 436.795
CUTE-I 27 May 06:19:47 06:24:09 25° 96° (E) 06:28:29 437.470
XW-2D 27 May 06:40:46 06:44:31 49° 100° (E) 06:48:13 145.860 - 145.880
XW-2B 27 May 06:48:40 06:52:29 61° 100° (E) 06:56:17 145.730 - 145.750
AO-7 27 May 06:57:21 07:00:34 13° 309° (NW) 07:03:46 .
NUDT-PHONESAT 27 May 06:57:46 07:01:30 61° 100° (E) 07:05:12 437.300
NO-84 27 May 06:59:45 07:02:32 17° 121° (ESE) 07:05:19 435.350 FM
XW-2F 27 May 07:00:46 07:04:36 88° 90° (E) 07:08:26 145.980 - 146.000
XW-2C 27 May 07:02:20 07:06:12 83° 282° (WNW) 07:10:01 145.795 - 145.815
KAITUO 1B 27 May 07:07:12 07:11:01 86° 103° (ESE) 07:14:47 145.475/437.950
BEESAT 2 27 May 07:07:16 07:09:37 15° 310° (NW) 07:12:00 435.950
STRAND 1 27 May 07:17:07 07:22:07 61° 74° (ENE) 07:27:09 437.568
XW-2A 27 May 07:19:15 07:20:23 11° 93° (E) 07:21:31 145.665 - 145.685
JUGNU 27 May 07:20:54 07:23:28 13° 194° (SSW) 07:26:02 437.505
LilacSat-2 27 May 07:41:53 07:45:02 24° 288° (WNW) 07:48:08 437.200
HO-68 27 May 07:48:18 07:55:10 45° 100° (E) 08:01:58 435.675
RS-15 27 May 07:50:49 07:56:22 14° 10° (N) 08:01:49 29.354- 29.394
CUTE 1.7 + AOD 2 27 May 07:54:20 07:58:27 46° 99° (E) 08:02:30 437.475
DOVE 4 27 May 07:54:22 07:56:08 12° 292° (WNW) 07:57:54 437.250
SO-50 27 May 07:57:49 08:02:17 62° 243° (WSW) 08:06:45 436.795
CUTE-I 27 May 07:59:23 08:04:10 34° 290° (WNW) 08:08:57 437.470
SRMSAT 27 May 08:00:12 08:04:19 19° 183° (S) 08:08:26 437.500
AAUSAT CUBESAT 2 27 May 08:05:25 08:08:01 16° 94° (E) 08:10:36 437.432
M-CUBED/EXP-1 PRIME 27 May 08:06:15 08:10:24 49° 70° (ENE) 08:14:16 437.505
ZACube-1 27 May 08:25:07 08:27:58 16° 93° (E) 08:30:49 437.345
NO-84 27 May 08:35:29 08:39:48 55° 315° (NW) 08:44:03 435.350 FM
CUBEBUG 2 27 May 08:39:25 08:44:03 76° 101° (E) 08:48:46 437.445
SEEDS 27 May 08:42:06 08:46:18 72° 283° (WNW) 08:50:27 437.485
UWE-3 27 May 08:48:15 08:52:47 55° 100° (E) 08:57:22 435.000/436.395/437.385
XW-2A 27 May 08:50:08 08:53:10 29° 287° (WNW) 08:56:12 145.665 - 145.685
STRAND 1 27 May 08:59:35 09:01:38 12° 268° (W) 09:03:41 437.568
Oscar 11 27 May 09:17:59 09:22:10 44° 99° (E) 09:26:18 .
TIGRISAT 27 May 09:18:21 09:21:21 19° 68° (ENE) 09:24:22 435.000
FO-29 27 May 09:27:39 09:32:08 31° 69° (ENE) 09:36:41 435.910
CUTE 1.7 + AOD 2 27 May 09:32:01 09:33:49 12° 293° (WNW) 09:35:36 437.475
HO-68 27 May 09:36:29 09:42:34 31° 296° (WNW) 09:48:37 435.675
AAUSAT CUBESAT 2 27 May 09:39:51 09:43:30 31° 288° (WNW) 09:47:07 437.432
PRISM 27 May 09:41:46 09:45:48 53° 75° (ENE) 09:49:49 437.425
M-CUBED/EXP-1 PRIME 27 May 09:43:30 09:44:54 11° 261° (W) 09:46:15 437.505
EO-88 27 May 09:44:12 09:46:01 13° 94° (E) 09:47:48 145.990 - 145.960
AO-73 27 May 09:45:22 09:49:53 65° 284° (WNW) 09:54:25 145.935
UNISAT 6 27 May 09:49:02 09:53:07 47° 74° (ENE) 09:57:18 437.425
SRMSAT 27 May 09:49:54 09:52:46 14° 193° (SSW) 09:55:37 437.500
DELFI C3 27 May 09:51:34 09:54:52 26° 97° (E) 09:58:08 145.870
ZACube-1 27 May 10:00:04 10:04:20 39° 287° (WNW) 10:08:36 437.345
RS-15 27 May 10:03:41 10:14:29 34° 44° (NE) 10:24:47 29.354- 29.394
NO-84 27 May 10:17:06 10:18:11 11° 332° (NNW) 10:19:15 435.350 FM
UWE-3 27 May 10:26:42 10:28:44 13° 294° (WNW) 10:30:45 435.000/436.395/437.385
AIST 2D 27 May 10:48:36 10:51:21 22° 72° (ENE) 10:54:07 435.315
TIGRISAT 27 May 10:54:04 10:57:47 29° 263° (W) 11:01:34 435.000
NANOSAT C BR1 27 May 10:54:21 10:56:19 13° 67° (ENE) 10:58:17 145.865
Oscar 11 27 May 10:55:43 10:57:51 14° 293° (WNW) 10:59:58 .
POLYITAN 1 27 May 10:58:55 11:01:36 17° 68° (ENE) 11:04:18 437.675
DUCHIFAT 1 27 May 11:04:03 11:06:29 15° 68° (ENE) 11:08:55 145.980
QB50P2 27 May 11:06:57 11:10:15 23° 70° (ENE) 11:13:33 145.880/145.840
FO-29 27 May 11:13:06 11:17:15 24° 265° (W) 11:21:27 435.910
EO-88 27 May 11:16:29 11:19:43 29° 287° (WNW) 11:22:56 145.990 - 145.960
ESTCUBE 1 27 May 11:18:03 11:20:44 16° 93° (E) 11:23:24 437.505/2401.250
DELFI C3 27 May 11:26:45 11:29:25 18° 290° (WNW) 11:32:05 145.870
UNISAT 6 27 May 11:28:44 11:30:05 11° 268° (W) 11:31:27 437.425
EO-79 27 May 11:42:51 11:46:55 57° 75° (ENE) 11:51:03 145.935-145.965
YUBILEINY 27 May 11:51:50 12:00:03 41° 76° (ENE) 12:08:12 435.215
LO-87 27 May 11:56:18 11:59:52 85° 284° (WNW) 12:03:26 145.935 - 145.965
VELOX 1 27 May 12:10:15 12:12:29 14° 93° (E) 12:14:42 145.980
RS-15 27 May 12:15:57 12:27:56 71° 247° (WSW) 12:39:17 29.354- 29.394
AIST 2D 27 May 12:22:13 12:24:29 16° 265° (W) 12:26:46 435.315
NANOSAT C BR1 27 May 12:27:40 12:31:36 42° 261° (W) 12:35:36 145.865
POLYITAN 1 27 May 12:33:21 12:37:06 32° 262° (W) 12:40:53 437.675
DUCHIFAT 1 27 May 12:38:01 12:41:49 35° 262° (W) 12:45:39 145.980
Gurwin Techsat 1B 27 May 12:39:15 12:41:50 14° 63° (ENE) 12:44:24 435.225
QB50P2 27 May 12:42:32 12:45:53 23° 264° (W) 12:49:17 145.880/145.840
DX 1 27 May 12:44:31 12:44:52 10° 92° (E) 12:45:13 434.975-435.025
Oscar 19 27 May 12:51:43 12:56:14 31° 70° (ENE) 13:00:46 437.125/150
BUGSAT 1 27 May 12:52:02 12:56:02 90° 257° (WSW) 13:00:03 437.445
ESTCUBE 1 27 May 12:53:28 12:57:38 39° 288° (WNW) 13:01:48 437.505/2401.250
50 SAT 27 May 13:03:34 13:06:27 26° 97° (E) 13:09:19 437.505
SPROUT 27 May 13:31:36 13:35:48 56° 285° (WNW) 13:40:00 437.525
AO-85 27 May 13:35:09 13:39:12 59° 60° (ENE) 13:43:29 145.980
VELOX 1 27 May 13:44:57 13:49:05 42° 287° (WNW) 13:53:12 145.980
YUBILEINY 27 May 13:48:46 13:56:39 38° 273° (W) 14:04:32 435.215
BEESAT 2 27 May 13:51:37 13:51:56 10° 47° (NE) 13:52:16 435.950
AO-7 27 May 14:05:42 14:11:56 24° 58° (ENE) 14:18:10 .
BEESAT 3 27 May 14:06:37 14:10:24 38° 57° (ENE) 14:14:05 437.485
UKube-1 27 May 14:07:13 14:11:31 74° 102° (ESE) 14:15:48 .
Gurwin Techsat 1B 27 May 14:15:54 14:21:09 66° 258° (WSW) 14:26:27 435.225
DX 1 27 May 14:17:05 14:21:19 54° 286° (WNW) 14:25:32 434.975-435.025
O/OREOS (USA 219) 27 May 14:17:26 14:21:56 73° 253° (WSW) 14:26:22 437.305
Oscar 19 27 May 14:31:09 14:35:28 26° 264° (W) 14:39:50 437.125/150
RS-15 27 May 14:34:17 14:37:59 12° 265° (W) 14:41:40 29.354- 29.394
50 SAT 27 May 14:37:28 14:39:02 13° 291° (WNW) 14:40:36 437.505
ITUPSAT 1 27 May 15:07:56 15:11:55 26° 96° (E) 15:15:54 437.325
NO-84 27 May 15:13:38 15:16:27 20° 36° (NE) 15:19:04 435.350 FM
MOZHAYETS 4 27 May 15:14:19 15:17:15 16° 94° (E) 15:20:09
BEESAT 2 27 May 15:26:07 15:30:10 72° 243° (WSW) 15:34:09 435.950
ITAMSAT 1 27 May 15:33:57 15:39:07 86° 258° (WSW) 15:44:19 435.822/435.867
BEESAT 27 May 15:40:08 15:44:54 60° 102° (ESE) 15:49:36 436.000
BEESAT 3 27 May 15:45:31 15:47:35 14° 252° (WSW) 15:49:39 437.485
AO-7 27 May 15:55:44 16:03:56 69° 255° (WSW) 16:12:14 .
ITUPSAT 1 27 May 16:45:35 16:49:38 28° 291° (WNW) 16:53:41 437.325
MOZHAYETS 4 27 May 16:50:10 16:54:30 39° 287° (WNW) 16:58:48
NO-84 27 May 16:50:51 16:54:06 34° 234° (SW) 16:57:05 435.350 FM
DOVE 4 27 May 17:16:48 17:20:52 31° 73° (ENE) 17:24:46 437.250
XW-2D 27 May 17:19:45 17:21:56 15° 69° (ENE) 17:24:07 145.860 - 145.880
BEESAT 27 May 17:20:06 17:22:06 13° 296° (WNW) 17:24:05 436.000
XW-2B 27 May 17:27:17 17:29:52 18° 70° (ENE) 17:32:28 145.730 - 145.750
NUDT-PHONESAT 27 May 17:34:35 17:36:56 16° 70° (ENE) 17:39:18 437.300
KKS-1 27 May 17:34:36 17:39:03 84° 100° (E) 17:43:30 437.445
CUTE-I 27 May 17:38:10 17:42:41 29° 69° (ENE) 17:47:13 437.470
XW-2F 27 May 17:38:29 17:41:32 23° 71° (ENE) 17:44:36 145.980 - 146.000
CUBESAT XI-V 27 May 17:38:59 17:43:37 71° 284° (WNW) 17:48:11 437.345
XW-2C 27 May 17:40:18 17:43:29 26° 72° (ENE) 17:46:42 145.795 - 145.815
KAITUO 1B 27 May 17:44:07 17:47:04 22° 71° (ENE) 17:50:03 145.475/437.950
STARS 27 May 18:02:10 18:06:33 70° 102° (ESE) 18:10:56 437.465
PCSat 27 May 18:04:11 18:08:35 26° 107° (ESE) 18:12:59 145.827
HO-68 27 May 18:14:15 18:19:41 24° 62° (ENE) 18:25:07 435.675
LilacSat-2 27 May 18:19:06 18:22:55 85° 262° (W) 18:26:47 437.200
CUTE 1.7 + AOD 2 27 May 18:43:54 18:47:08 21° 70° (ENE) 18:50:23 437.475
